Location: Asheville, NC
(35.6000°N, 82.5500°W)
Time: 00:08:00
(UTC-04:00)

Max Valier Satellite - Visible Passes

Search period start: 21 June 2018 00:00
Search period end: 01 July 2018 00:00
Orbit: 492 x 511 km, 97.4° (Epoch: 20 June)

Date Brightness Start Highest point End Pass type
(mag) Time Alt. Az. Time Alt. Az. Time Alt. Az.
21 Jun ? 22:52:09 40° SSW 22:53:06 55° W 22:56:41 10° NNW visible
22 Jun ? 22:32:51 41° SSE 22:34:02 76° ENE 22:37:40 10° N visible
23 Jun ? 22:13:34 27° ESE 22:15:00 39° ENE 22:18:25 10° N visible
24 Jun ? 21:54:17 16° ESE 21:56:01 22° ENE 21:58:54 10° NNE visible
24 Jun ? 23:29:00 17° WSW 23:29:43 17° W 23:32:13 10° NW visible
25 Jun ? 21:35:20 10° E 21:37:05 13° ENE 21:38:50 10° NE visible
25 Jun ? 23:09:43 27° SW 23:10:34 31° W 23:13:49 10° NW visible
26 Jun ? 22:50:26 41° SSW 22:51:26 58° W 22:55:01 10° NNW visible
27 Jun ? 22:31:09 39° SSE 22:32:21 72° ENE 22:35:58 10° N visible
28 Jun ? 22:11:52 26° ESE 22:13:19 37° ENE 22:16:42 10° N visible
28 Jun ? 23:46:50 10° W 23:47:15 10° W 23:47:40 10° W visible
29 Jun ? 21:52:35 15° ESE 21:54:20 21° ENE 21:57:09 10° NNE visible
29 Jun ? 23:27:18 17° WSW 23:28:01 18° W 23:30:36 10° NW visible
30 Jun ? 21:33:48 10° E 21:35:24 13° ENE 21:37:00 10° NE visible
30 Jun ? 23:08:00 29° SW 23:08:50 32° W 23:12:08 10° NNW visible
